Waarnemingen

Advertentie
Mijn weer
Barcelona/Aeropuerto, Spanje (8181): temperatuur & dauwpunt: 17.07.2019 13:00:00 - 23.07.2019 13:00:00 (CEST)Barcelona/Aeropuerto, Spanje (8181): windsnelheid: 17.07.2019 13:00:00 - 23.07.2019 13:00:00 (CEST)Barcelona/Aeropuerto, Spanje (8181): windrichting: 17.07.2019 13:00:00 - 23.07.2019 13:00:00 (CEST)Barcelona/Aeropuerto, Spanje (8181): luchtdruk: 17.07.2019 13:00:00 - 23.07.2019 13:00:00 (CEST)Barcelona/Aeropuerto, Spanje (8181): zicht: 17.07.2019 13:00:00 - 23.07.2019 13:00:00 (CEST)
Datum & Tijd tt [°C] td [°C] ff [km/u] ff [kn] dd ppp [hPa] vv [km]
23.07.2019 13:00:00 29,8 21,8 28 15 ZW 1017,7 25
23.07.2019 12:00:00 30,0 21,6 22 12 ZW 1018,0 23
23.07.2019 11:00:00 30,4 17,9 18 10 WZW 1018,1 25
23.07.2019 10:00:00 29,8 20,1 5 3 NW 1018,2 30
23.07.2019 09:00:00 27,4 17,3 8 4 NNO 1018,1 23
23.07.2019 08:00:00 25,0 15,6 9 5 NNO 1017,8 21
23.07.2019 07:00:00 23,5 15,8 5 3 NNW 1017,7 20
23.07.2019 06:00:00 24,4 15,9 9 5 N 1017,7 30
23.07.2019 05:00:00 24,2 17,2 4 2 NNO 1017,9 30
23.07.2019 04:00:00 24,7 17,9 4 2 NNW 1018,4 28
23.07.2019 03:00:00 25,3 19,0 8 4 N 1018,8 23
23.07.2019 02:00:00 25,6 20,6 4 2 N 1019,2 25
23.07.2019 01:00:00 25,5 21,4 4 2 W 1019,6 20
23.07.2019 00:00:00 26,0 23,3 8 4 W 1019,8 15
22.07.2019 23:00:00 27,5 23,3 4 2 Z 1020,1 26
22.07.2019 22:00:00 27,3 23,1 4 2 ZW 1019,9 30
22.07.2019 21:00:00 28,2 24,2 8 4 ZW 1020,0 23
22.07.2019 20:00:00 28,8 24,4 13 7 Z 1019,9 20
22.07.2019 19:00:00 29,3 24,1 13 7 Z 1020,2 30
22.07.2019 18:00:00 30,2 23,1 13 7 ZZW 1020,6 30
22.07.2019 17:00:00 29,5 24,3 15 8 Z 1020,8 25
22.07.2019 16:00:00 29,8 23,9 15 8 Z 1020,9 22
22.07.2019 15:00:00 30,3 22,1 15 8 Z 1021,1 30
22.07.2019 14:00:00 30,8 21,2 11 6 Z 1021,4 25
22.07.2019 13:00:00 30,0 21,7 13 7 ZZO 1021,9 30
22.07.2019 12:00:00 29,9 21,1 9 5 Z 1021,8 29
22.07.2019 11:00:00 29,6 20,5 11 6 ZZO 1021,7 25
22.07.2019 10:00:00 28,8 16,0 11 6 N 1021,6 29
22.07.2019 09:00:00 26,1 16,6 13 7 N 1021,7 27
22.07.2019 08:00:00 24,3 16,3 15 8 N 1021,5 26
22.07.2019 07:00:00 23,0 16,3 11 6 N 1021,5 23
22.07.2019 06:00:00 23,5 16,8 11 6 NNO 1021,6 29
22.07.2019 05:00:00 23,5 17,1 13 7 N 1021,5 30
22.07.2019 04:00:00 23,9 17,6 11 6 N 1021,3 25
22.07.2019 03:00:00 24,7 18,9 8 4 N 1021,4 30
22.07.2019 02:00:00 24,4 20,1 4 2 NNW 1021,6 30
22.07.2019 01:00:00 25,0 22,3 8 4 WNW 1021,9 19
22.07.2019 00:00:00 26,3 23,0 5 3 ZZO 1021,5 29
21.07.2019 23:00:00 26,5 23,0 9 5 O 1021,4 25
21.07.2019 22:00:00 26,6 22,6 9 5 O 1020,8 29
21.07.2019 21:00:00 27,0 22,8 9 5 ZZO 1020,5 30
21.07.2019 20:00:00 27,8 22,4 9 5 ZZO 1020,5 35
21.07.2019 19:00:00 28,5 22,3 11 6 ZZO 1020,0 30
21.07.2019 18:00:00 29,2 21,1 11 6 ZZO 1020,2 30
21.07.2019 17:00:00 29,6 19,7 13 7 ZZO 1020,5 30
21.07.2019 16:00:00 30,0 18,9 9 5 ZZO 1020,8 30
21.07.2019 15:00:00 29,4 19,1 11 6 ZO 1021,0 28
21.07.2019 14:00:00 29,4 21,4 11 6 ZO 1021,5 27
21.07.2019 13:00:00 28,7 21,1 15 8 OZO 1021,5 30
21.07.2019 12:00:00 28,0 22,2 16 9 O 1021,5 21
21.07.2019 11:00:00 27,6 22,1 18 10 OZO 1021,1 22
21.07.2019 10:00:00 26,8 22,3 18 10 O 1020,9 19
21.07.2019 09:00:00 26,6 20,2 9 5 NNO 1020,2 19
21.07.2019 08:00:00 24,7 19,9 15 8 N 1020,1 19
21.07.2019 07:00:00 23,6 20,5 13 7 N 1019,6 20
21.07.2019 06:00:00 23,9 20,8 11 6 NNO 1019,3 22
21.07.2019 05:00:00 24,1 21,4 15 8 NNO 1019,3 17
21.07.2019 04:00:00 24,4 21,7 11 6 NNO 1019,5 21
21.07.2019 03:00:00 24,9 22,0 11 6 N 1019,5 19
21.07.2019 02:00:00 25,8 23,1 13 7 ONO 1019,6 25
21.07.2019 01:00:00 25,9 23,4 15 8 O 1019,4 25
21.07.2019 00:00:00 26,1 23,4 15 8 O 1019,1 26
20.07.2019 23:00:00 26,3 23,2 13 7 O 1018,6 25
20.07.2019 22:00:00 27,0 23,3 11 6 OZO 1017,8 30
20.07.2019 21:00:00 27,1 23,1 9 5 ZZO 1017,2 27
20.07.2019 20:00:00 27,9 23,3 11 6 ZZO 1016,7 30
20.07.2019 19:00:00 28,5 23,1 13 7 ZZO 1016,7 30
20.07.2019 18:00:00 28,9 23,2 15 8 Z 1016,9 27
20.07.2019 17:00:00 29,4 23,6 16 9 Z 1016,9 25
20.07.2019 16:00:00 29,7 23,2 15 8 Z 1016,9 28
20.07.2019 15:00:00 29,2 23,6 18 10 ZZO 1016,9 29
20.07.2019 14:00:00 29,0 23,7 21 11 ZZO 1016,7 25
20.07.2019 13:00:00 29,0 23,4 18 10 ZZO 1016,8 19
20.07.2019 12:00:00 29,5 19,7 15 8 ZO 1016,3 27
20.07.2019 11:00:00 29,6 21,5 11 6 ZO 1016,2 30
20.07.2019 10:00:00 27,8 20,2 13 7 N 1016,4 27
20.07.2019 09:00:00 25,8 20,4 16 9 N 1016,2 18
20.07.2019 08:00:00 23,8 20,3 13 7 N 1015,9 17
20.07.2019 07:00:00 22,8 20,1 13 7 N 1015,4 17
20.07.2019 06:00:00 23,1 20,2 13 7 N 1015,3 16
20.07.2019 05:00:00 23,2 20,2 11 6 N 1015,2 17
20.07.2019 04:00:00 23,6 20,3 13 7 N 1015,1 20
20.07.2019 03:00:00 23,9 20,2 11 6 N 1015,2 28
20.07.2019 02:00:00 24,4 20,9 8 4 NNW 1015,4 30
20.07.2019 01:00:00 25,2 21,3 5 3 NNW 1015,8 30
20.07.2019 00:00:00 25,6 21,9 4 2 W 1015,7 30
19.07.2019 23:00:00 25,9 22,0 8 4 WZW 1015,6 30
19.07.2019 22:00:00 26,2 21,8 9 5 ZW 1015,3 30
19.07.2019 21:00:00 26,8 22,2 11 6 ZW 1015,1 30
19.07.2019 20:00:00 27,3 22,0 15 8 ZZW 1015,0 30
19.07.2019 19:00:00 27,9 22,2 13 7 ZZW 1015,3 30
19.07.2019 18:00:00 28,9 22,3 15 8 ZW 1015,7 25
19.07.2019 17:00:00 28,8 22,5 15 8 Z 1016,0 30
19.07.2019 16:00:00 28,8 22,1 15 8 Z 1016,5 30
19.07.2019 15:00:00 28,9 21,7 15 8 Z 1016,9 30
19.07.2019 14:00:00 29,1 21,6 16 9 ZZW 1017,1 30
19.07.2019 13:00:00 28,4 22,6 15 8 ZZO 1017,2 26
19.07.2019 12:00:00 28,1 21,9 13 7 ZZO 1017,2 30
19.07.2019 11:00:00 27,8 21,6 11 6 ZO 1017,1 25
19.07.2019 10:00:00 27,7 21,7 5 3 Z 1017,1 30
19.07.2019 09:00:00 26,0 20,6 8 4 NNO 1017,0 15
19.07.2019 08:00:00 23,8 19,9 13 7 N 1016,4 13
19.07.2019 07:00:00 22,7 19,9 13 7 N 1016,2 14
19.07.2019 06:00:00 22,9 19,9 11 6 N 1016,2 18
19.07.2019 05:00:00 23,3 20,1 11 6 N 1016,2 20
19.07.2019 04:00:00 23,6 19,9 11 6 N 1016,3 21
19.07.2019 03:00:00 24,2 20,1 9 5 N 1016,5 21
19.07.2019 02:00:00 24,7 20,0 9 5 NNO 1016,6 25
19.07.2019 01:00:00 25,4 21,1 5 3 NNO 1016,6 30
19.07.2019 00:00:00 26,2 21,4 4 2 ZO 1016,3 30
18.07.2019 23:00:00 26,1 20,9 4 2 WNW 1016,0 30
18.07.2019 22:00:00 26,4 21,2 8 4 WZW 1015,4 30
18.07.2019 21:00:00 27,0 20,8 11 6 ZW 1015,1 30
18.07.2019 20:00:00 28,2 20,0 21 11 ZW 1014,4 30
18.07.2019 19:00:00 28,5 20,9 21 11 ZW 1014,1 30
18.07.2019 18:00:00 28,1 20,6 16 9 ZZW 1014,1 30
18.07.2019 17:00:00 28,6 20,6 13 7 Z 1014,3 22
18.07.2019 16:00:00 28,8 21,3 15 8 ZW 1014,6 21
18.07.2019 15:00:00 29,0 20,4 15 8 Z 1014,7 30
18.07.2019 14:00:00 28,0 18,6 13 7 ZZO 1014,8 23
18.07.2019 13:00:00 27,8 18,6 18 10 ZO 1014,8 30
18.07.2019 12:00:00 29,6 17,8 16 9 OZO 1014,8 30
18.07.2019 11:00:00 28,5 17,9 13 7 N 1014,7 30
18.07.2019 10:00:00 24,9 18,0 16 9 N 1014,8 30
18.07.2019 09:00:00 22,7 17,8 15 8 N 1014,4 22
18.07.2019 08:00:00 22,0 17,8 15 8 N 1014,2 25
18.07.2019 07:00:00 21,0 17,4 15 8 N 1014,0 27
18.07.2019 06:00:00 21,2 17,4 15 8 N 1013,9 27
18.07.2019 05:00:00 21,4 17,6 16 9 N 1014,1 35
18.07.2019 04:00:00 21,9 17,9 13 7 N 1013,8 26
18.07.2019 03:00:00 22,4 17,6 11 6 N 1014,0 30
18.07.2019 02:00:00 21,9 17,7 15 8 N 1014,5 40
18.07.2019 01:00:00 22,0 18,0 13 7 N 1014,8 30
18.07.2019 00:00:00 21,5 18,1 13 7 N 1014,4 30
17.07.2019 23:00:00 21,6 18,5 16 9 N 1014,5 28
17.07.2019 22:00:00 21,8 18,4 21 11 N 1014,4 30
17.07.2019 21:00:00 22,2 18,7 13 7 ONO 1013,2 21
17.07.2019 20:00:00 24,0 16,6 34 18 NNO 1015,6 30
17.07.2019 19:00:00 27,4 21,5 21 11 ZW 1013,0 30
17.07.2019 18:00:00 28,8 21,5 22 12 ZW 1012,8 30
17.07.2019 17:00:00 28,5 21,2 26 14 ZW 1013,3 30
17.07.2019 16:00:00 29,1 20,9 26 14 ZW 1013,6 30
17.07.2019 15:00:00 28,5 22,2 28 15 ZW 1013,9 30
17.07.2019 14:00:00 28,5 22,1 24 13 ZW 1014,0 26
17.07.2019 13:00:00 28,6 21,1 28 15 ZW 1014,4 30

tt = temperatuur
td = dauwpunt
ff = windsnelheid
dd = windrichting
ppp = luchtdruk
vv = zicht

Weerstations in de omgeving